ATLAS 5 CENTAUR DEB, 44652

Orbit data source: Space-Track

ATLAS 5 CENTAUR DEB, 44652 is space debris in HEO originally from a launch on Wed, 17 Oct 2018 UTC launched from the Air Force Eastern Test Range (AFETR). Debris objects in space refer to the collection of defunct objects orbiting the Earth. Examples of debris include non-operational satellites, rocket bodies, and fragments generated from explosions, collisions, or faulty payload assembly.

Loading next visibility...
Identifier
44652, 2018-079N
Orbit
HEO
Country
Flag of USUS
Related business
Flag of USUnited Launch Alliance/Lockheed Martin (US)
Manufacturer
ULA Decatur
Mission
Spacecraft
Bus & Motor
Unknown
Mass
Unknown
Launch date (UTC)
2018-10-17 (8 years ago)
Launch vehicle
Unknown
Launch site
Air Force Eastern Test Range (AFETR)
Object type
Payload
Rocket body
Debris
Shape & HBR
Unknown shape, 1.1 m
Radar Cross Section
RCS unknown

Expand to show TLE details & history
Last TLE update: 2 days ago

TLE from 2 days ago
0 ATLAS 5 CENTAUR DEB
1 44652U 18079N   26123.31841937 -.00000124  00000-0  00000-0 0  9994
2 44652  12.9799  38.8436 4619090 316.4130  15.2703  1.86600614 51331
Epoch: 2026-05-03T07:38Z
TLE epoch observation values (Epoch: 2026-05-03T07:38:31.433Z)
Latitude
0.00001°
Longitude
62.92871°
Altitude
10,041.188 km
Speed
5.852 km/s
True Right ascension
02h 35m 08s
True Declination
0° 00' 00"
Sunlit
Object was in daylight at epoch
Visualization orbit readout
Latitude
Unknown
Longitude
Unknown
Altitude
Unknown
Speed
Unknown
Apparent Right ascension
Unknown
Apparent Declination
Unknown
Sunlit
N/A
Visualization observer readout
Local Sidereal Time
18:45:10
Azimuth
Unknown
Elevation
Unknown
Doppler factor
Unknown
Orbital elements
Apogee altitude
34,367.367 km
Perigee altitude
8,619.232 km
Semi-major axis
27,871.437 km
Eccentricity
0.46191
Inclination
12.9799°
RAAN
38.8436°
Arg. of periapsis
316.413°
True anomaly
43.90794°
Mean anomaly
15.2703°
Eccentric anomaly
27.48421°
Mean motion
0.46645 °/min
Orbital period
771.79 mins
BSTAR
0
Loading maneuver chart data...
Computing Atmospheric mass density...

Documentation

Showing up to 5 results
|